Year,Month,Day,Hour,Minute,Value (Times are PST for temperature in C)
2006,11,30,00,00,4.10
2006,11,30,00,01,4.20
2006,11,30,00,02,4.30
2006,11,30,00,03,4.30
2006,11,30,00,04,4.30
2006,11,30,00,05,4.30
2006,11,30,00,06,4.30
2006,11,30,00,07,4.20
2006,11,30,00,08,4.20
2006,11,30,00,09,4.20
2006,11,30,00,10,4.30
2006,11,30,00,11,4.30
2006,11,30,00,12,4.30
2006,11,30,00,13,4.30
2006,11,30,00,14,4.20
2006,11,30,00,15,4.20
2006,11,30,00,16,4.20
2006,11,30,00,17,4.20
2006,11,30,00,18,4.20
2006,11,30,00,19,4.30
2006,11,30,00,20,4.30
2006,11,30,00,21,4.30
2006,11,30,00,22,4.30
2006,11,30,00,23,4.30
2006,11,30,00,24,4.30
2006,11,30,00,25,4.40
2006,11,30,00,26,4.40
2006,11,30,00,27,4.40
2006,11,30,00,28,4.50
2006,11,30,00,29,4.50
2006,11,30,00,30,4.60
2006,11,30,00,31,4.60
2006,11,30,00,32,4.60
2006,11,30,00,33,4.60
2006,11,30,00,34,4.60
2006,11,30,00,35,4.60
2006,11,30,00,36,4.60
2006,11,30,00,37,4.70
2006,11,30,00,38,4.70
2006,11,30,00,39,4.70
2006,11,30,00,40,4.70
2006,11,30,00,41,4.80
2006,11,30,00,42,4.80
2006,11,30,00,43,4.80
2006,11,30,00,44,4.80
2006,11,30,00,45,4.80
2006,11,30,00,46,4.80
2006,11,30,00,47,4.80
2006,11,30,00,48,4.80
2006,11,30,00,49,4.80
2006,11,30,00,50,4.80
2006,11,30,00,51,4.90
2006,11,30,00,52,4.90
2006,11,30,00,53,4.90
2006,11,30,00,54,4.90
2006,11,30,00,55,4.90
2006,11,30,00,56,4.90
2006,11,30,00,57,4.90
2006,11,30,00,58,4.90
2006,11,30,00,59,4.90
2006,11,30,01,00,5.00
2006,11,30,01,01,5.10
2006,11,30,01,02,5.10
2006,11,30,01,03,5.00
2006,11,30,01,04,4.90
2006,11,30,01,05,5.00
2006,11,30,01,06,5.10
2006,11,30,01,07,5.10
2006,11,30,01,08,5.10
2006,11,30,01,09,5.20
2006,11,30,01,10,5.30
2006,11,30,01,11,5.30
2006,11,30,01,12,5.30
2006,11,30,01,13,5.30
2006,11,30,01,14,5.30
2006,11,30,01,15,5.30
2006,11,30,01,16,5.30
2006,11,30,01,17,5.30
2006,11,30,01,18,5.30
2006,11,30,01,19,5.30
2006,11,30,01,20,5.30
2006,11,30,01,21,5.30
2006,11,30,01,22,5.30
2006,11,30,01,23,5.30
2006,11,30,01,24,5.30
2006,11,30,01,25,5.20
2006,11,30,01,26,5.20
2006,11,30,01,27,5.20
2006,11,30,01,28,5.20
2006,11,30,01,29,5.20
2006,11,30,01,30,5.20
2006,11,30,01,31,5.20
2006,11,30,01,32,5.20
2006,11,30,01,33,5.20
2006,11,30,01,34,5.20
2006,11,30,01,35,5.20
2006,11,30,01,36,5.20
2006,11,30,01,37,5.20
2006,11,30,01,38,5.20
2006,11,30,01,39,5.20
2006,11,30,01,40,5.20
2006,11,30,01,41,5.20
2006,11,30,01,42,5.20
2006,11,30,01,43,5.20
2006,11,30,01,44,5.20
2006,11,30,01,45,5.20
2006,11,30,01,46,5.20
2006,11,30,01,47,5.20
2006,11,30,01,48,5.20
2006,11,30,01,49,5.30
2006,11,30,01,50,5.30
2006,11,30,01,51,5.30
2006,11,30,01,52,5.30
2006,11,30,01,53,5.30
2006,11,30,01,54,5.30
2006,11,30,01,55,5.30
2006,11,30,01,56,5.20
2006,11,30,01,57,5.20
2006,11,30,01,58,5.20
2006,11,30,01,59,5.20
2006,11,30,02,00,5.20
2006,11,30,02,01,5.20
2006,11,30,02,02,5.20
2006,11,30,02,03,5.20
2006,11,30,02,04,5.20
2006,11,30,02,05,5.20
2006,11,30,02,06,5.20
2006,11,30,02,07,5.20
2006,11,30,02,08,5.20
2006,11,30,02,09,5.30
2006,11,30,02,10,5.30
2006,11,30,02,11,5.30
2006,11,30,02,12,5.30
2006,11,30,02,13,5.30
2006,11,30,02,14,5.30
2006,11,30,02,15,5.30
2006,11,30,02,16,5.30
2006,11,30,02,17,5.30
2006,11,30,02,18,5.30
2006,11,30,02,19,5.30
2006,11,30,02,20,5.30
2006,11,30,02,21,5.30
2006,11,30,02,22,5.30
2006,11,30,02,23,5.30
2006,11,30,02,24,5.30
2006,11,30,02,25,5.30
2006,11,30,02,26,5.20
2006,11,30,02,27,5.10
2006,11,30,02,28,5.10
2006,11,30,02,29,5.10
2006,11,30,02,30,5.10
2006,11,30,02,31,4.90
2006,11,30,02,32,4.90
2006,11,30,02,33,4.90
2006,11,30,02,34,4.90
2006,11,30,02,35,4.90
2006,11,30,02,36,4.90
2006,11,30,02,37,4.90
2006,11,30,02,38,4.90
2006,11,30,02,39,4.90
2006,11,30,02,40,4.90
2006,11,30,02,41,4.90
2006,11,30,02,42,4.90
2006,11,30,02,43,4.90
2006,11,30,02,44,4.90
2006,11,30,02,45,4.90
2006,11,30,02,46,4.90
2006,11,30,02,47,4.90
2006,11,30,02,48,4.90
2006,11,30,02,49,4.90
2006,11,30,02,50,4.90
2006,11,30,02,51,4.90
2006,11,30,02,52,4.90
2006,11,30,02,53,5.00
2006,11,30,02,54,5.10
2006,11,30,02,55,4.90
2006,11,30,02,56,4.90
2006,11,30,02,57,4.90
2006,11,30,02,58,4.80
2006,11,30,02,59,4.80
2006,11,30,03,00,4.80
2006,11,30,03,01,4.80
2006,11,30,03,02,4.80
2006,11,30,03,03,4.80
2006,11,30,03,04,4.90
2006,11,30,03,05,4.90
2006,11,30,03,06,4.90
2006,11,30,03,07,4.90
2006,11,30,03,08,4.90
2006,11,30,03,09,5.00
2006,11,30,03,10,5.10
2006,11,30,03,11,5.10
2006,11,30,03,12,5.10
2006,11,30,03,13,5.10
2006,11,30,03,14,5.20
2006,11,30,03,15,5.20
2006,11,30,03,16,5.30
2006,11,30,03,17,5.30
2006,11,30,03,18,5.30
2006,11,30,03,19,5.30
2006,11,30,03,20,5.30
2006,11,30,03,21,5.30
2006,11,30,03,22,5.20
2006,11,30,03,23,5.20
2006,11,30,03,24,5.20
2006,11,30,03,25,5.20
2006,11,30,03,26,5.20
2006,11,30,03,27,5.20
2006,11,30,03,28,5.30
2006,11,30,03,29,5.20
2006,11,30,03,30,5.20
2006,11,30,03,31,5.20
2006,11,30,03,32,5.20
2006,11,30,03,33,5.10
2006,11,30,03,34,5.10
2006,11,30,03,35,5.10
2006,11,30,03,36,5.10
2006,11,30,03,37,5.10
2006,11,30,03,38,5.00
2006,11,30,03,39,4.90
2006,11,30,03,40,4.90
2006,11,30,03,41,4.80
2006,11,30,03,42,4.80
2006,11,30,03,43,4.70
2006,11,30,03,44,4.60
2006,11,30,03,45,4.60
2006,11,30,03,46,4.60
2006,11,30,03,47,4.60
2006,11,30,03,48,4.50
2006,11,30,03,49,4.50
2006,11,30,03,50,4.50
2006,11,30,03,51,4.50
2006,11,30,03,52,4.50
2006,11,30,03,53,4.50
2006,11,30,03,54,4.40
2006,11,30,03,55,4.40
2006,11,30,03,56,4.30
2006,11,30,03,57,4.30
2006,11,30,03,58,4.20
2006,11,30,03,59,4.20
2006,11,30,04,00,4.20
2006,11,30,04,01,4.20
2006,11,30,04,02,4.20
2006,11,30,04,03,4.20
2006,11,30,04,04,4.20
2006,11,30,04,05,4.30
2006,11,30,04,06,4.40
2006,11,30,04,07,4.50
2006,11,30,04,08,4.60
2006,11,30,04,09,4.60
2006,11,30,04,10,4.60
2006,11,30,04,11,4.60
2006,11,30,04,12,4.70
2006,11,30,04,13,4.70
2006,11,30,04,14,4.70
2006,11,30,04,15,4.70
2006,11,30,04,16,4.60
2006,11,30,04,17,4.50
2006,11,30,04,18,4.40
2006,11,30,04,19,4.30
2006,11,30,04,20,4.20
2006,11,30,04,21,4.00
2006,11,30,04,22,4.00
2006,11,30,04,23,3.80
2006,11,30,04,24,3.70
2006,11,30,04,25,3.60
2006,11,30,04,26,3.40
2006,11,30,04,27,3.30
2006,11,30,04,28,3.20
2006,11,30,04,29,3.10
2006,11,30,04,30,2.90
2006,11,30,04,31,2.80
2006,11,30,04,32,2.70
2006,11,30,04,33,2.60
2006,11,30,04,34,2.50
2006,11,30,04,35,2.40
2006,11,30,04,36,2.30
2006,11,30,04,37,2.20
2006,11,30,04,38,2.10
2006,11,30,04,39,2.00
2006,11,30,04,40,1.90
2006,11,30,04,41,1.80
2006,11,30,04,42,1.80
2006,11,30,04,43,1.70
2006,11,30,04,44,1.60
2006,11,30,04,45,1.60
2006,11,30,04,46,1.50
2006,11,30,04,47,1.40
2006,11,30,04,48,1.30
2006,11,30,04,49,1.30
2006,11,30,04,50,1.30
2006,11,30,04,51,1.30
2006,11,30,04,52,1.30
2006,11,30,04,53,1.30
2006,11,30,04,54,1.30
2006,11,30,04,55,1.30
2006,11,30,04,56,1.30
2006,11,30,04,57,1.30
2006,11,30,04,58,1.30
2006,11,30,04,59,1.20
2006,11,30,05,00,1.30
2006,11,30,05,01,1.30
2006,11,30,05,02,1.30
2006,11,30,05,03,1.20
2006,11,30,05,04,1.20
2006,11,30,05,05,1.20
2006,11,30,05,06,1.20
2006,11,30,05,07,1.10
2006,11,30,05,08,1.10
2006,11,30,05,09,1.10
2006,11,30,05,10,1.10
2006,11,30,05,11,1.10
2006,11,30,05,12,1.00
2006,11,30,05,13,1.00
2006,11,30,05,14,0.90
2006,11,30,05,15,0.90
2006,11,30,05,16,0.80
2006,11,30,05,17,0.80
2006,11,30,05,18,0.80
2006,11,30,05,19,0.80
2006,11,30,05,20,0.70
2006,11,30,05,21,0.70
2006,11,30,05,22,0.60
2006,11,30,05,23,0.60
2006,11,30,05,24,0.50
2006,11,30,05,25,0.50
2006,11,30,05,26,0.50
2006,11,30,05,27,0.40
2006,11,30,05,28,0.40
2006,11,30,05,29,0.40
2006,11,30,05,30,0.40
2006,11,30,05,31,0.40
2006,11,30,05,32,0.30
2006,11,30,05,33,0.30
2006,11,30,05,34,0.30
2006,11,30,05,35,0.30
2006,11,30,05,36,0.30
2006,11,30,05,37,0.30
2006,11,30,05,38,0.30
2006,11,30,05,39,0.30
2006,11,30,05,40,0.30
2006,11,30,05,41,0.30
2006,11,30,05,42,0.30
2006,11,30,05,43,0.40
2006,11,30,05,44,0.40
2006,11,30,05,45,0.50
2006,11,30,05,46,0.60
2006,11,30,05,47,0.60
2006,11,30,05,48,0.60
2006,11,30,05,49,0.70
2006,11,30,05,50,0.70
2006,11,30,05,51,0.60
2006,11,30,05,52,0.60
2006,11,30,05,53,0.60
2006,11,30,05,54,0.60
2006,11,30,05,55,0.60
2006,11,30,05,56,0.60
2006,11,30,05,57,0.60
2006,11,30,05,58,0.60
2006,11,30,05,59,0.60
2006,11,30,06,00,0.70
2006,11,30,06,01,0.70
2006,11,30,06,02,0.70
2006,11,30,06,03,0.60
2006,11,30,06,04,0.60
2006,11,30,06,05,0.50
2006,11,30,06,06,0.50
2006,11,30,06,07,0.40
2006,11,30,06,08,0.30
2006,11,30,06,09,0.30
2006,11,30,06,10,0.20
2006,11,30,06,11,0.20
2006,11,30,06,12,0.10
2006,11,30,06,13,0.10
2006,11,30,06,14,0.00
2006,11,30,06,15,-0.10
2006,11,30,06,16,-0.10
2006,11,30,06,17,-0.10
2006,11,30,06,18,-0.10
2006,11,30,06,19,-0.10
2006,11,30,06,20,-0.10
2006,11,30,06,21,-0.10
2006,11,30,06,22,-0.10
2006,11,30,06,23,-0.20
2006,11,30,06,24,-0.20
2006,11,30,06,25,-0.20
2006,11,30,06,26,-0.20
2006,11,30,06,27,-0.20
2006,11,30,06,28,-0.20
2006,11,30,06,29,-0.20
2006,11,30,06,30,-0.20
2006,11,30,06,31,-0.20
2006,11,30,06,32,-0.30
2006,11,30,06,33,-0.30
2006,11,30,06,34,-0.30
2006,11,30,06,35,-0.30
2006,11,30,06,36,-0.30
2006,11,30,06,37,-0.20
2006,11,30,06,38,-0.20
2006,11,30,06,39,-0.20
2006,11,30,06,40,-0.20
2006,11,30,06,41,-0.20
2006,11,30,06,42,-0.20
2006,11,30,06,43,-0.20
2006,11,30,06,44,-0.20
2006,11,30,06,45,-0.20
2006,11,30,06,46,-0.20
2006,11,30,06,47,-0.20
2006,11,30,06,48,-0.20
2006,11,30,06,49,-0.10
2006,11,30,06,50,-0.20
2006,11,30,06,51,-0.20
2006,11,30,06,52,-0.20
2006,11,30,06,53,-0.20
2006,11,30,06,54,-0.20
2006,11,30,06,55,-0.30
2006,11,30,06,56,-0.30
2006,11,30,06,57,-0.30
2006,11,30,06,58,-0.20
2006,11,30,06,59,0.00
2006,11,30,07,00,0.10
2006,11,30,07,01,0.20
2006,11,30,07,02,0.30
2006,11,30,07,03,0.50
2006,11,30,07,04,0.50
2006,11,30,07,05,0.60
2006,11,30,07,06,0.80
2006,11,30,07,07,1.00
2006,11,30,07,08,1.10
2006,11,30,07,09,1.20
2006,11,30,07,10,1.30
2006,11,30,07,11,1.30
2006,11,30,07,12,1.30
2006,11,30,07,13,1.40
2006,11,30,07,14,1.40
2006,11,30,07,15,1.50
2006,11,30,07,16,1.50
2006,11,30,07,17,1.40
2006,11,30,07,18,1.50
2006,11,30,07,19,1.50
2006,11,30,07,20,1.60
2006,11,30,07,21,1.60
2006,11,30,07,22,1.60
2006,11,30,07,23,1.60
2006,11,30,07,24,1.60
2006,11,30,07,25,1.50
2006,11,30,07,26,1.40
2006,11,30,07,27,1.30
2006,11,30,07,28,1.20
2006,11,30,07,29,1.00
2006,11,30,07,30,0.90
2006,11,30,07,31,0.70
2006,11,30,07,32,0.60
2006,11,30,07,33,0.50
2006,11,30,07,34,0.40
2006,11,30,07,35,0.40
2006,11,30,07,36,0.30
2006,11,30,07,37,0.20
2006,11,30,07,38,0.10
2006,11,30,07,39,0.00
2006,11,30,07,40,-0.10
2006,11,30,07,41,-0.10
2006,11,30,07,42,-0.10
2006,11,30,07,43,-0.10
2006,11,30,07,44,-0.20
2006,11,30,07,45,-0.20
2006,11,30,07,46,-0.20
2006,11,30,07,47,-0.20
2006,11,30,07,48,-0.20
2006,11,30,07,49,-0.20
2006,11,30,07,50,-0.20
2006,11,30,07,51,-0.10
2006,11,30,07,52,-0.10
2006,11,30,07,53,-0.10
2006,11,30,07,54,-0.20
2006,11,30,07,55,-0.20
2006,11,30,07,56,-0.20
2006,11,30,07,57,-0.30
2006,11,30,07,58,-0.30
2006,11,30,07,59,-0.30
2006,11,30,08,00,-0.30
2006,11,30,08,01,-0.30
2006,11,30,08,02,-0.30
2006,11,30,08,03,-0.30
2006,11,30,08,04,-0.20
2006,11,30,08,05,-0.20
2006,11,30,08,06,-0.20
2006,11,30,08,07,-0.20
2006,11,30,08,08,-0.10
2006,11,30,08,09,-0.10
2006,11,30,08,10,-0.10
2006,11,30,08,11,0.10
2006,11,30,08,12,0.40
2006,11,30,08,13,0.50
2006,11,30,08,14,0.80
2006,11,30,08,15,1.20
2006,11,30,08,16,1.60
2006,11,30,08,17,1.80
2006,11,30,08,18,2.00
2006,11,30,08,19,2.20
2006,11,30,08,20,2.40
2006,11,30,08,21,2.50
2006,11,30,08,22,2.50
2006,11,30,08,23,2.70
2006,11,30,08,24,2.80
2006,11,30,08,25,3.00
2006,11,30,08,26,3.10
2006,11,30,08,27,3.10
2006,11,30,08,28,3.10
2006,11,30,08,29,3.10
2006,11,30,08,30,3.10
2006,11,30,08,31,3.10
2006,11,30,08,32,3.10
2006,11,30,08,33,3.10
2006,11,30,08,34,3.20
2006,11,30,08,35,3.30
2006,11,30,08,36,3.30
2006,11,30,08,37,3.50
2006,11,30,08,38,3.60
2006,11,30,08,39,3.70
2006,11,30,08,40,3.80
2006,11,30,08,41,3.90
2006,11,30,08,42,3.90
2006,11,30,08,43,3.90
2006,11,30,08,44,3.90
2006,11,30,08,45,3.90
2006,11,30,08,46,4.00
2006,11,30,08,47,4.00
2006,11,30,08,48,4.00
2006,11,30,08,49,4.00
2006,11,30,08,50,4.10
2006,11,30,08,51,4.10
2006,11,30,08,52,4.00
2006,11,30,08,53,4.00
2006,11,30,08,54,4.00
2006,11,30,08,55,4.00
2006,11,30,08,56,4.00
2006,11,30,08,57,3.90
2006,11,30,08,58,3.90
2006,11,30,08,59,3.90
2006,11,30,09,00,3.90
2006,11,30,09,01,3.90
2006,11,30,09,02,3.90
2006,11,30,09,03,4.00
2006,11,30,09,04,4.00
2006,11,30,09,05,4.10
2006,11,30,09,06,4.10
2006,11,30,09,07,4.20
2006,11,30,09,08,4.20
2006,11,30,09,09,4.30
2006,11,30,09,10,4.40
2006,11,30,09,11,4.40
2006,11,30,09,12,4.50
2006,11,30,09,13,4.50
2006,11,30,09,14,4.60
2006,11,30,09,15,4.60
2006,11,30,09,16,4.70
2006,11,30,09,17,4.70
2006,11,30,09,18,4.80
2006,11,30,09,19,4.80
2006,11,30,09,20,4.80
2006,11,30,09,21,4.90
2006,11,30,09,22,4.90
2006,11,30,09,23,4.90
2006,11,30,09,24,4.90
2006,11,30,09,25,4.90
2006,11,30,09,26,4.90
2006,11,30,09,27,4.90
2006,11,30,09,28,4.90
2006,11,30,09,29,5.00
2006,11,30,09,30,5.10
2006,11,30,09,31,5.10
2006,11,30,09,32,5.10
2006,11,30,09,33,5.00
2006,11,30,09,34,4.90
2006,11,30,09,35,4.90
2006,11,30,09,36,4.90
2006,11,30,09,37,4.90
2006,11,30,09,38,5.00
2006,11,30,09,39,5.10
2006,11,30,09,40,5.10
2006,11,30,09,41,5.10
2006,11,30,09,42,5.10
2006,11,30,09,43,5.10
2006,11,30,09,44,5.10
2006,11,30,09,45,5.10
2006,11,30,09,46,5.10
2006,11,30,09,47,5.10
2006,11,30,09,48,5.10
2006,11,30,09,49,5.10
2006,11,30,09,50,5.10
2006,11,30,09,51,5.10
2006,11,30,09,52,5.10
2006,11,30,09,53,5.10
2006,11,30,09,54,5.10
2006,11,30,09,55,5.10
2006,11,30,09,56,5.10
2006,11,30,09,57,5.10
2006,11,30,09,58,5.10
2006,11,30,09,59,5.20
2006,11,30,10,00,5.20
2006,11,30,10,01,5.20
2006,11,30,10,02,5.20
2006,11,30,10,03,5.30
2006,11,30,10,04,5.30
2006,11,30,10,05,5.30
2006,11,30,10,06,5.30
2006,11,30,10,07,5.30
2006,11,30,10,08,5.30
2006,11,30,10,09,5.30
2006,11,30,10,10,5.40
2006,11,30,10,11,5.40
2006,11,30,10,12,5.50
2006,11,30,10,13,5.60
2006,11,30,10,14,5.60
2006,11,30,10,15,5.60
2006,11,30,10,16,5.70
2006,11,30,10,17,5.70
2006,11,30,10,18,5.70
2006,11,30,10,19,5.70
2006,11,30,10,20,5.70
2006,11,30,10,21,5.70
2006,11,30,10,22,5.70
2006,11,30,10,23,5.70
2006,11,30,10,24,5.70
2006,11,30,10,25,5.70
2006,11,30,10,26,5.70
2006,11,30,10,27,5.70
2006,11,30,10,28,5.70
2006,11,30,10,29,5.70
2006,11,30,10,30,5.70
2006,11,30,10,31,5.70
2006,11,30,10,32,5.70
2006,11,30,10,33,5.70
2006,11,30,10,34,5.70
2006,11,30,10,35,5.70
2006,11,30,10,36,5.70
2006,11,30,10,37,5.70
2006,11,30,10,38,5.70
2006,11,30,10,39,5.70
2006,11,30,10,40,5.70
2006,11,30,10,41,5.70
2006,11,30,10,42,5.70
2006,11,30,10,43,5.70
2006,11,30,10,44,5.70
2006,11,30,10,45,5.70
2006,11,30,10,46,5.70
2006,11,30,10,47,5.70
2006,11,30,10,48,5.70
2006,11,30,10,49,5.70
2006,11,30,10,50,5.70
2006,11,30,10,51,5.70
2006,11,30,10,52,5.80
2006,11,30,10,53,5.80
2006,11,30,10,54,5.80
2006,11,30,10,55,5.90
2006,11,30,10,56,5.90
2006,11,30,10,57,5.90
2006,11,30,10,58,6.00
2006,11,30,10,59,6.00
2006,11,30,11,00,6.00
2006,11,30,11,01,6.00
2006,11,30,11,02,6.10
2006,11,30,11,03,6.10
2006,11,30,11,04,6.10
2006,11,30,11,05,6.10
2006,11,30,11,06,6.10
2006,11,30,11,07,6.10
2006,11,30,11,08,6.10
2006,11,30,11,09,6.10
2006,11,30,11,10,6.10
2006,11,30,11,11,6.10
2006,11,30,11,12,6.00
2006,11,30,11,13,6.00
2006,11,30,11,14,6.00
2006,11,30,11,15,6.00
2006,11,30,11,16,6.00
2006,11,30,11,17,6.00
2006,11,30,11,18,5.90
2006,11,30,11,19,5.90
2006,11,30,11,20,5.90
2006,11,30,11,21,5.80
2006,11,30,11,22,5.80
2006,11,30,11,23,5.80
2006,11,30,11,24,5.80
2006,11,30,11,25,5.80
2006,11,30,11,26,5.80
2006,11,30,11,27,5.80
2006,11,30,11,28,5.80
2006,11,30,11,29,5.80
2006,11,30,11,30,5.80
2006,11,30,11,31,5.80
2006,11,30,11,32,5.80
2006,11,30,11,33,5.80
2006,11,30,11,34,5.70
2006,11,30,11,35,5.70
2006,11,30,11,36,5.70
2006,11,30,11,37,5.80
2006,11,30,11,38,5.80
2006,11,30,11,39,5.80
2006,11,30,11,40,5.80
2006,11,30,11,41,5.80
2006,11,30,11,42,5.80
2006,11,30,11,43,5.80
2006,11,30,11,44,5.80
2006,11,30,11,45,5.80
2006,11,30,11,46,5.70
2006,11,30,11,47,5.70
2006,11,30,11,48,5.70
2006,11,30,11,49,5.70
2006,11,30,11,50,5.70
2006,11,30,11,51,5.70
2006,11,30,11,52,5.70
2006,11,30,11,53,5.70
2006,11,30,11,54,5.70
2006,11,30,11,55,5.70
2006,11,30,11,56,5.60
2006,11,30,11,57,5.60
2006,11,30,11,58,5.50
2006,11,30,11,59,5.50
2006,11,30,12,00,5.50
2006,11,30,12,01,5.50
2006,11,30,12,02,5.50
2006,11,30,12,03,5.40
2006,11,30,12,04,5.40
2006,11,30,12,05,5.40
2006,11,30,12,06,5.40
2006,11,30,12,07,5.30
2006,11,30,12,08,5.30
2006,11,30,12,09,5.30
2006,11,30,12,10,5.30
2006,11,30,12,11,5.30
2006,11,30,12,12,5.30
2006,11,30,12,13,5.30
2006,11,30,12,14,5.30
2006,11,30,12,15,5.30
2006,11,30,12,16,5.30
2006,11,30,12,17,5.30
2006,11,30,12,18,5.30
2006,11,30,12,19,5.30
2006,11,30,12,20,5.30
2006,11,30,12,21,5.40
2006,11,30,12,22,5.40
2006,11,30,12,23,5.40
2006,11,30,12,24,5.40
2006,11,30,12,25,5.40
2006,11,30,12,26,5.30
2006,11,30,12,27,5.30
2006,11,30,12,28,5.30
2006,11,30,12,29,5.30
2006,11,30,12,30,5.30
2006,11,30,12,31,5.30
2006,11,30,12,32,5.30
2006,11,30,12,33,5.30
2006,11,30,12,34,5.30
2006,11,30,12,35,5.30
2006,11,30,12,36,5.30
2006,11,30,12,37,5.30
2006,11,30,12,38,5.30
2006,11,30,12,39,5.20
2006,11,30,12,40,5.20
2006,11,30,12,41,5.20
2006,11,30,12,42,5.20
2006,11,30,12,43,5.20
2006,11,30,12,44,5.20
2006,11,30,12,45,5.20
2006,11,30,12,46,5.10
2006,11,30,12,47,5.10
2006,11,30,12,48,5.10
2006,11,30,12,49,5.10
2006,11,30,12,50,5.10
2006,11,30,12,51,5.10
2006,11,30,12,52,5.10
2006,11,30,12,53,5.10
2006,11,30,12,54,5.10
2006,11,30,12,55,5.10
2006,11,30,12,56,5.10
2006,11,30,12,57,5.10
2006,11,30,12,58,5.20
2006,11,30,12,59,5.20
2006,11,30,13,00,5.20
2006,11,30,13,01,5.20
2006,11,30,13,02,5.20
2006,11,30,13,03,5.20
2006,11,30,13,04,5.20
2006,11,30,13,05,5.20
2006,11,30,13,06,5.20
2006,11,30,13,07,5.20
2006,11,30,13,08,5.20
2006,11,30,13,09,5.20
2006,11,30,13,10,5.20
2006,11,30,13,11,5.20
2006,11,30,13,12,5.20
2006,11,30,13,13,5.20
2006,11,30,13,14,5.30
2006,11,30,13,15,5.30
2006,11,30,13,16,5.30
2006,11,30,13,17,5.20
2006,11,30,13,18,5.20
2006,11,30,13,19,5.20
2006,11,30,13,20,5.20
2006,11,30,13,21,5.30
2006,11,30,13,22,5.30
2006,11,30,13,23,5.30
2006,11,30,13,24,5.30
2006,11,30,13,25,5.30
2006,11,30,13,26,5.30
2006,11,30,13,27,5.30
2006,11,30,13,28,5.30
2006,11,30,13,29,5.30
2006,11,30,13,30,5.30
2006,11,30,13,31,5.30
2006,11,30,13,32,5.30
2006,11,30,13,33,5.30
2006,11,30,13,34,5.30
2006,11,30,13,35,5.30
2006,11,30,13,36,5.30
2006,11,30,13,37,5.30
2006,11,30,13,38,5.30
2006,11,30,13,39,5.30
2006,11,30,13,40,5.30
2006,11,30,13,41,5.30
2006,11,30,13,42,5.30
2006,11,30,13,43,5.20
2006,11,30,13,44,5.20
2006,11,30,13,45,5.20
2006,11,30,13,46,5.20
2006,11,30,13,47,5.20
2006,11,30,13,48,5.20
2006,11,30,13,49,5.20
2006,11,30,13,50,5.20
2006,11,30,13,51,5.20
2006,11,30,13,52,5.20
2006,11,30,13,53,5.20
2006,11,30,13,54,5.20
2006,11,30,13,55,5.20
2006,11,30,13,56,5.20
2006,11,30,13,57,5.20
2006,11,30,13,58,5.20
2006,11,30,13,59,5.20
2006,11,30,14,00,5.20
2006,11,30,14,01,5.30
2006,11,30,14,02,5.30
2006,11,30,14,03,5.30
2006,11,30,14,04,5.20
2006,11,30,14,05,5.20
2006,11,30,14,06,5.20
2006,11,30,14,07,5.20
2006,11,30,14,08,5.20
2006,11,30,14,09,5.10
2006,11,30,14,10,5.10
2006,11,30,14,11,5.10
2006,11,30,14,12,5.10
2006,11,30,14,13,5.10
2006,11,30,14,14,5.10
2006,11,30,14,15,5.10
2006,11,30,14,16,5.10
2006,11,30,14,17,5.10
2006,11,30,14,18,5.10
2006,11,30,14,19,5.10
2006,11,30,14,20,5.10
2006,11,30,14,21,5.10
2006,11,30,14,22,5.10
2006,11,30,14,23,5.10
2006,11,30,14,24,5.10
2006,11,30,14,25,5.10
2006,11,30,14,26,5.10
2006,11,30,14,27,5.10
2006,11,30,14,28,5.10
2006,11,30,14,29,5.10
2006,11,30,14,30,5.10
2006,11,30,14,31,5.10
2006,11,30,14,32,5.00
2006,11,30,14,33,4.90
2006,11,30,14,34,4.90
2006,11,30,14,35,4.90
2006,11,30,14,36,4.90
2006,11,30,14,37,4.90
2006,11,30,14,38,4.80
2006,11,30,14,39,4.80
2006,11,30,14,40,4.80
2006,11,30,14,41,4.80
2006,11,30,14,42,4.80
2006,11,30,14,43,4.80
2006,11,30,14,44,4.80
2006,11,30,14,45,4.80
2006,11,30,14,46,4.80
2006,11,30,14,47,4.80
2006,11,30,14,48,4.80
2006,11,30,14,49,4.80
2006,11,30,14,50,4.80
2006,11,30,14,51,4.80
2006,11,30,14,52,4.80
2006,11,30,14,53,4.80
2006,11,30,14,54,4.80
2006,11,30,14,55,4.80
2006,11,30,14,56,4.80
2006,11,30,14,57,4.80
2006,11,30,14,58,4.80
2006,11,30,14,59,4.90
2006,11,30,15,00,4.90
2006,11,30,15,01,4.90
2006,11,30,15,02,4.90
2006,11,30,15,03,4.90
2006,11,30,15,04,4.90
2006,11,30,15,05,5.00
2006,11,30,15,06,5.10
2006,11,30,15,07,5.10
2006,11,30,15,08,5.10
2006,11,30,15,09,5.10
2006,11,30,15,10,5.10
2006,11,30,15,11,5.10
2006,11,30,15,12,5.20
2006,11,30,15,13,5.20
2006,11,30,15,14,5.20
2006,11,30,15,15,5.20
2006,11,30,15,16,5.20
2006,11,30,15,17,5.20
2006,11,30,15,18,5.20
2006,11,30,15,19,5.20
2006,11,30,15,20,5.20
2006,11,30,15,21,5.20
2006,11,30,15,22,5.30
2006,11,30,15,23,5.30
2006,11,30,15,24,5.30
2006,11,30,15,25,5.20
2006,11,30,15,26,5.30
2006,11,30,15,27,5.30
2006,11,30,15,28,5.30
2006,11,30,15,29,5.20
2006,11,30,15,30,5.20
2006,11,30,15,31,5.30
2006,11,30,15,32,5.20
2006,11,30,15,33,5.20
2006,11,30,15,34,5.20
2006,11,30,15,35,5.20
2006,11,30,15,36,5.20
2006,11,30,15,37,5.20
2006,11,30,15,38,5.10
2006,11,30,15,39,5.10
2006,11,30,15,40,5.10
2006,11,30,15,41,5.10
2006,11,30,15,42,5.10
2006,11,30,15,43,5.10
2006,11,30,15,44,5.10
2006,11,30,15,45,5.10
2006,11,30,15,46,5.10
2006,11,30,15,47,5.20
2006,11,30,15,48,5.20
2006,11,30,15,49,5.20
2006,11,30,15,50,5.30
2006,11,30,15,51,5.30
2006,11,30,15,52,5.30
2006,11,30,15,53,5.30
2006,11,30,15,54,5.30
2006,11,30,15,55,5.30
2006,11,30,15,56,5.30
2006,11,30,15,57,5.20
2006,11,30,15,58,5.20
2006,11,30,15,59,5.20
2006,11,30,16,00,5.20
2006,11,30,16,01,5.10
2006,11,30,16,02,5.20
2006,11,30,16,03,5.20
2006,11,30,16,04,5.20
2006,11,30,16,05,5.20
2006,11,30,16,06,5.20
2006,11,30,16,07,5.20
2006,11,30,16,08,5.10
2006,11,30,16,09,5.10
2006,11,30,16,10,5.10
2006,11,30,16,11,5.10
2006,11,30,16,12,5.10
2006,11,30,16,13,5.10
2006,11,30,16,14,5.10
2006,11,30,16,15,5.10
2006,11,30,16,16,5.10
2006,11,30,16,17,5.00
2006,11,30,16,18,4.90
2006,11,30,16,19,4.90
2006,11,30,16,20,4.90
2006,11,30,16,21,4.90
2006,11,30,16,22,4.90
2006,11,30,16,23,4.90
2006,11,30,16,24,4.90
2006,11,30,16,25,4.90
2006,11,30,16,26,4.90
2006,11,30,16,27,4.90
2006,11,30,16,28,4.90
2006,11,30,16,29,4.90
2006,11,30,16,30,4.90
2006,11,30,16,31,4.90
2006,11,30,16,32,4.90
2006,11,30,16,33,4.90
2006,11,30,16,34,4.90
2006,11,30,16,35,4.90
2006,11,30,16,36,4.90
2006,11,30,16,37,4.80
2006,11,30,16,38,4.80
2006,11,30,16,39,4.80
2006,11,30,16,40,4.80
2006,11,30,16,41,4.80
2006,11,30,16,42,4.80
2006,11,30,16,43,4.80
2006,11,30,16,44,4.80
2006,11,30,16,45,4.80
2006,11,30,16,46,4.80
2006,11,30,16,47,4.80
2006,11,30,16,48,4.90
2006,11,30,16,49,4.90
2006,11,30,16,50,4.90
2006,11,30,16,51,4.90
2006,11,30,16,52,4.90
2006,11,30,16,53,4.90
2006,11,30,16,54,4.90
2006,11,30,16,55,4.90
2006,11,30,16,56,4.90
2006,11,30,16,57,4.90
2006,11,30,16,58,5.00
2006,11,30,16,59,5.10
2006,11,30,17,00,4.90
2006,11,30,17,01,4.90
2006,11,30,17,02,4.90
2006,11,30,17,03,5.00
2006,11,30,17,04,4.90
2006,11,30,17,05,4.90
2006,11,30,17,06,4.90
2006,11,30,17,07,4.90
2006,11,30,17,08,4.90
2006,11,30,17,09,4.90
2006,11,30,17,10,4.90
2006,11,30,17,11,4.90
2006,11,30,17,12,4.80
2006,11,30,17,13,4.90
2006,11,30,17,14,4.90
2006,11,30,17,15,4.90
2006,11,30,17,16,5.00
2006,11,30,17,17,5.10
2006,11,30,17,18,5.10
2006,11,30,17,19,5.10
2006,11,30,17,20,5.10
2006,11,30,17,21,5.10
2006,11,30,17,22,5.10
2006,11,30,17,23,5.10
2006,11,30,17,24,5.10
2006,11,30,17,25,5.00
2006,11,30,17,26,4.90
2006,11,30,17,27,4.90
2006,11,30,17,28,4.90
2006,11,30,17,29,4.90
2006,11,30,17,30,4.90
2006,11,30,17,31,4.90
2006,11,30,17,32,4.90
2006,11,30,17,33,4.90
2006,11,30,17,34,4.90
2006,11,30,17,35,4.90
2006,11,30,17,36,4.80
2006,11,30,17,37,4.80
2006,11,30,17,38,4.80
2006,11,30,17,39,4.70
2006,11,30,17,40,4.70
2006,11,30,17,41,4.70
2006,11,30,17,42,4.60
2006,11,30,17,43,4.60
2006,11,30,17,44,4.60
2006,11,30,17,45,4.60
2006,11,30,17,46,4.60
2006,11,30,17,47,4.50
2006,11,30,17,48,4.50
2006,11,30,17,49,4.50
2006,11,30,17,50,4.40
2006,11,30,17,51,4.40
2006,11,30,17,52,4.40
2006,11,30,17,53,4.30
2006,11,30,17,54,4.30
2006,11,30,17,55,4.20
2006,11,30,17,56,4.20
2006,11,30,17,57,4.20
2006,11,30,17,58,4.20
2006,11,30,17,59,4.10
2006,11,30,18,00,4.00
2006,11,30,18,01,4.00
2006,11,30,18,02,4.00
2006,11,30,18,03,3.90